KA8CNI Weather Reports


time (UTC)temp
F
wind
direction
speed
knots
gust
knots
rain 1hr
in
rain 24hr
in
rain mn
in
humidity
%
barometer
mb
20260503224514 59 202 10.4 0.0 0.00 0.00 0.00 49 1010.9
20260503223014 59 217 11.3 0.0 0.00 0.00 0.00 47 1010.9
20260503221512 59 247 12.2 0.0 0.00 0.00 0.00 46 1011.0
20260503220012 59 213 11.3 0.0 0.00 0.00 0.00 50 1011.1
20260503214511 59 223 13.0 0.0 0.00 0.00 0.00 47 1011.1
20260503213017 59 222 12.2 0.0 0.00 0.00 0.00 47 1011.2
20260503211510 59 241 12.2 0.0 0.00 0.00 0.00 48 1011.2
20260503210009 58 223 11.3 0.0 0.00 0.00 0.00 49 1011.3
20260503204507 58 237 13.0 0.0 0.00 0.00 0.00 49 1011.4
20260503203012 58 187 13.0 0.0 0.00 0.00 0.00 48 1011.5
20260503201506 59 240 12.2 0.0 0.00 0.00 0.00 48 1011.6
20260503200010 59 242 12.2 0.0 0.00 0.00 0.00 49 1011.9
20260503194505 59 253 12.2 0.0 0.00 0.00 0.00 47 1012.1
20260503193001 59 192 13.0 0.0 0.00 0.00 0.00 48 1012.3
20260503191607 59 265 13.0 0.0 0.00 0.00 0.00 49 1012.5
20260503190104 59 220 13.0 0.0 0.00 0.00 0.00 48 1012.8
20260503184555 59 214 13.0 0.0 0.00 0.00 0.00 50 1013.0
20260503183112 58 238 13.0 0.0 0.00 0.00 0.00 49 1013.1
20260503181618 58 212 12.2 0.0 0.00 0.00 0.00 48 1013.4
20260503180049 58 236 13.9 0.0 0.00 0.00 0.00 48 1013.5
20260503174545 57 240 13.0 0.0 0.00 0.00 0.00 55 1013.7
20260503173052 57 221 13.0 0.0 0.00 0.00 0.00 54 1013.9
20260503171541 56 216 13.0 0.0 0.00 0.00 0.00 54 1014.1
20260503100110 37 235 4.3 0.0 0.00 0.00 0.00 81 1015.1
20260503081549 37 240 4.3 0.0 0.00 0.00 0.00 83 1015.1
20260503071542 38 241 4.3 0.0 0.00 0.00 0.00 86 1015.2
20260503054536 38 223 0.0 0.0 0.00 0.00 0.00 88 1015.5
20260503053025 39 221 0.9 0.0 0.00 0.00 0.00 87 1015.5
20260503051527 39 220 0.9 0.0 0.00 0.00 0.00 86 1015.4
20260503050023 40 219 0.9 0.0 0.00 0.00 0.00 86 1015.5
20260503044530 40 209 0.0 0.0 0.00 0.00 0.00 85 1015.5
20260503043016 41 210 1.7 0.0 0.00 0.00 0.00 85 1015.6
20260503041513 41 207 0.9 0.0 0.00 0.00 0.00 84 1015.6
20260503040017 41 209 0.9 0.0 0.00 0.00 0.00 84 1015.7
20260503034514 41 217 0.0 0.0 0.00 0.00 0.00 83 1015.7
20260503033012 41 257 0.0 0.0 0.00 0.00 0.00 82 1015.7
20260503031510 41 257 0.0 0.0 0.00 0.00 0.00 82 1015.8
20260503030009 41 296 0.0 0.0 0.00 0.00 0.00 83 1015.8
20260503024509 41 313 0.0 0.0 0.00 0.00 0.00 83 1016.0
20260503023008 41 313 0.0 0.0 0.00 0.00 0.00 82 1016.1
20260503021508 41 317 0.0 0.0 0.00 0.00 0.00 83 1016.1
20260503020008 41 338 0.0 0.0 0.00 0.00 0.00 83 1016.0
20260503014507 41 338 0.0 0.0 0.00 0.00 0.00 82 1015.9
20260503013007 41 338 0.0 0.0 0.00 0.00 0.00 81 1015.8
20260503011506 41 338 0.0 0.0 0.00 0.00 0.00 81 1015.9
20260503010010 41 338 0.0 0.0 0.00 0.00 0.00 81 1015.8
20260503004505 41 338 0.0 0.0 0.00 0.00 0.00 81 1015.8
20260503003006 42 338 0.0 0.0 0.00 0.00 0.00 80 1015.6
20260503001505 42 338 0.0 0.0 0.00 0.00 0.00 78 1015.7
20260503000004 42 338 0.0 0.0 0.00 0.00 0.00 77 1015.6
20260502234508 42 338 0.0 0.0 0.00 0.00 0.00 76 1015.6
20260502233007 42 269 0.0 0.0 0.00 0.00 0.00 75 1015.6
20260502231503 42 270 0.0 0.0 0.00 0.00 0.00 73 1015.5
20260502230003 43 270 0.0 0.0 0.00 0.00 0.00 70 1015.5